Back to catalog

STARLINK-37076

AliveCommunicationsVLEO
NORAD 68173·PAYLOAD·🇺🇸 United States

Launched Mar 14, 2026 from Vandenberg Space Force Base

Loading…

Next Passes (next 24 hours)

TLE

FreshSource: CelesTrak SupGP

Epoch: Sep 14, 2026, 15:59 UTC

1 68173C 26050G   26257.66645833 -.00015800  00000+0 -46674-3 0  2573
2 68173  53.1584 105.2897 0001224  92.4449  72.4116 15.34404220    13

Track STARLINK-37076 in real time with AllMySat

Download on the App Store